OK1KZE-6 Weather Reports


time (UTC)temp
F
wind
direction
speed
knots
gust
knots
rain 1hr
in
rain 24hr
in
rain mn
in
humidity
%
barometer
mb
20260905235007 30 0 0.0 0.0 0.00 0.00 0.00 100 1025.6
20260905234509 59 290 11.3 12.2 0.00 0.00 0.00 63 1025.6
20260905234008 59 290 11.3 12.2 0.00 0.00 0.00 63 1025.8
20260905233507 30 0 0.0 0.0 0.00 0.00 0.00 100 1025.6
20260905233007 30 0 0.0 0.0 0.00 0.00 0.00 100 1025.5
20260905232507 30 0 0.0 0.0 0.00 0.00 0.00 100 1025.7
20260905232008 30 0 0.0 0.0 0.00 0.00 0.00 100 1025.5
20260905231507 59 296 13.9 15.6 0.00 0.00 0.00 60 1025.6
20260905231008 59 296 13.9 15.6 0.00 0.00 0.00 60 1025.8
20260905230507 59 305 9.6 13.9 0.00 0.00 0.00 60 1025.4
20260905230007 30 0 0.0 0.0 0.00 0.00 0.00 100 1025.6
20260905225507 30 0 0.0 0.0 0.00 0.00 0.00 100 1025.6
20260905225007 30 0 0.0 0.0 0.00 0.00 0.00 100 1025.3
20260905224507 30 0 0.0 0.0 0.00 0.00 0.00 100 1025.4
20260905224007 60 274 8.7 10.4 0.00 0.00 0.00 58 1025.4
20260905223507 60 274 8.7 10.4 0.00 0.00 0.00 58 1025.4
20260905223007 60 289 11.3 12.2 0.00 0.00 0.00 57 1025.2
20260905222507 60 305 12.2 13.0 0.00 0.00 0.00 57 1025.5
20260905222007 30 0 0.0 0.0 0.00 0.00 0.00 100 1025.5
20260905221508 30 0 0.0 0.0 0.00 0.00 0.00 100 1025.4
20260905221007 30 0 0.0 0.0 0.00 0.00 0.00 100 1025.4
20260905220507 30 0 0.0 0.0 0.00 0.00 0.00 100 1025.5
20260905220008 60 288 8.7 12.2 0.00 0.00 0.00 56 1025.4
20260905215507 60 288 8.7 12.2 0.00 0.00 0.00 56 1025.4
20260905215008 60 289 13.0 13.9 0.00 0.00 0.00 56 1025.3
20260905214508 61 290 9.6 10.4 0.00 0.00 0.00 56 1025.2
20260905214007 61 291 13.9 14.8 0.00 0.00 0.00 55 1025.3
20260905213507 61 300 9.6 12.2 0.00 0.00 0.00 56 1025.4
20260905213007 61 290 15.6 16.5 0.00 0.00 0.00 55 1025.3
20260905212507 61 295 13.9 14.8 0.00 0.00 0.00 55 1025.4
20260905212008 61 297 15.6 16.5 0.00 0.00 0.00 54 1025.1
20260905211507 61 298 14.8 15.6 0.00 0.00 0.00 54 1025.1
20260905211007 61 295 12.2 14.8 0.00 0.00 0.00 54 1024.8
20260905210507 62 295 17.4 19.1 0.00 0.00 0.00 53 1024.9
20260905210007 61 288 14.8 16.5 0.00 0.00 0.00 54 1025.0
20260905205507 61 298 11.3 13.0 0.00 0.00 0.00 54 1025.0
20260905205007 61 289 15.6 16.5 0.00 0.00 0.00 54 1024.8
20260905204507 61 292 13.0 13.9 0.00 0.00 0.00 54 1024.8
20260905204007 62 291 10.4 14.8 0.00 0.00 0.00 53 1024.6
20260905203507 62 298 14.8 17.4 0.00 0.00 0.00 52 1024.7
20260905203008 62 298 14.8 17.4 0.00 0.00 0.00 52 1024.4
20260905202507 62 294 16.5 18.2 0.00 0.00 0.00 52 1024.5
20260905202007 30 0 0.0 0.0 0.00 0.00 0.00 100 1024.6
20260905201508 63 297 15.6 20.0 0.00 0.00 0.00 51 1024.4
20260905201007 63 297 15.6 20.0 0.00 0.00 0.00 51 1024.4
20260905200507 63 293 15.6 17.4 0.00 0.00 0.00 51 1024.3
20260905200007 63 295 13.9 20.0 0.00 0.00 0.00 51 1024.4
20260905195508 30 0 0.0 0.0 0.00 0.00 0.00 100 1024.3
20260905195008 63 281 19.1 20.9 0.00 0.00 0.00 50 1024.2
20260905194508 63 281 19.1 20.9 0.00 0.00 0.00 50 1024.0
20260905194007 63 285 15.6 20.0 0.00 0.00 0.00 50 1024.1
20260905193508 63 289 19.1 20.0 0.00 0.00 0.00 50 1023.9
20260905193007 30 0 0.0 0.0 0.00 0.00 0.00 100 1024.1
20260905192507 64 286 14.8 17.4 0.00 0.00 0.00 49 1024.0
20260905192007 64 286 14.8 17.4 0.00 0.00 0.00 49 1023.9
20260905191507 64 285 15.6 16.5 0.00 0.00 0.00 49 1024.1
20260905191007 30 0 0.0 0.0 0.00 0.00 0.00 100 1024.0
20260905190507 30 0 0.0 0.0 0.00 0.00 0.00 100 1024.1
20260905190008 30 0 0.0 0.0 0.00 0.00 0.00 100 1023.9
20260905185508 30 0 0.0 0.0 0.00 0.00 0.00 100 1023.8
20260905185007 65 289 9.6 11.3 0.00 0.00 0.00 49 1023.7
20260905184506 65 289 9.6 11.3 0.00 0.00 0.00 49 1023.6
20260905184007 65 281 15.6 17.4 0.00 0.00 0.00 48 1023.7
20260905183507 65 283 12.2 16.5 0.00 0.00 0.00 49 1023.6
20260905183008 65 297 10.4 12.2 0.00 0.00 0.00 51 1023.7
20260905182508 65 297 10.4 12.2 0.00 0.00 0.00 51 1023.4
20260905182007 65 305 13.0 13.9 0.00 0.00 0.00 50 1023.4
20260905181507 65 296 12.2 14.8 0.00 0.00 0.00 50 1023.5
20260905181007 65 302 12.2 13.9 0.00 0.00 0.00 50 1023.2
20260905180507 65 304 10.4 13.0 0.00 0.00 0.00 51 1023.2
20260905180007 65 303 13.0 16.5 0.00 0.00 0.00 50 1023.1
20260905175507 65 302 14.8 18.2 0.00 0.00 0.00 50 1022.9
20260905175008 65 302 7.8 10.4 0.00 0.00 0.00 50 1022.8
20260905174508 65 306 12.2 13.9 0.00 0.00 0.00 50 1023.0
20260905174009 66 302 10.4 11.3 0.00 0.00 0.00 49 1022.8
20260905173507 66 319 6.1 10.4 0.00 0.00 0.00 49 1022.8
20260905173008 66 315 7.0 10.4 0.00 0.00 0.00 49 1022.6
20260905172508 66 329 10.4 12.2 0.00 0.00 0.00 48 1022.7
20260905172008 66 305 10.4 16.5 0.00 0.00 0.00 48 1022.5
20260905171508 67 307 9.6 13.0 0.00 0.00 0.00 48 1022.4
20260905171007 67 305 7.0 7.8 0.00 0.00 0.00 48 1022.5
20260905170507 68 307 11.3 12.2 0.00 0.00 0.00 48 1022.4
20260905170007 68 310 7.8 12.2 0.00 0.00 0.00 47 1022.3
20260905165507 68 310 7.0 13.0 0.00 0.00 0.00 47 1022.1
20260905165008 68 293 18.2 19.1 0.00 0.00 0.00 46 1022.3
20260905164508 68 308 7.0 9.6 0.00 0.00 0.00 46 1022.2
20260905164007 68 323 6.1 9.6 0.00 0.00 0.00 46 1022.0
20260905163507 69 298 9.6 14.8 0.00 0.00 0.00 43 1021.8
20260905163008 69 289 11.3 16.5 0.00 0.00 0.00 44 1021.9
20260905162507 69 294 14.8 14.8 0.00 0.00 0.00 43 1021.8
20260905162007 69 311 5.2 9.6 0.00 0.00 0.00 44 1021.7
20260905161507 69 318 11.3 14.8 0.00 0.00 0.00 43 1021.8
20260905161006 70 308 19.1 19.1 0.00 0.00 0.00 43 1021.8
20260905160507 70 312 7.8 17.4 0.00 0.00 0.00 43 1021.5
20260905160009 70 329 10.4 15.6 0.00 0.00 0.00 43 1021.6
20260905155507 70 300 19.1 21.7 0.00 0.00 0.00 43 1021.5
20260905155007 70 295 13.0 16.5 0.00 0.00 0.00 42 1021.5
20260905154506 70 287 15.6 16.5 0.00 0.00 0.00 42 1021.6
20260905154007 70 290 15.6 18.2 0.00 0.00 0.00 43 1021.3
20260905153507 70 265 10.4 12.2 0.00 0.00 0.00 43 1021.3
20260905153008 70 287 21.7 28.7 0.00 0.00 0.00 42 1021.3
20260905152508 69 290 16.5 19.1 0.00 0.00 0.00 44 1021.3
20260905152007 69 282 16.5 24.3 0.00 0.00 0.00 44 1021.3
20260905151507 69 289 16.5 20.0 0.00 0.00 0.00 45 1021.3
20260905151007 69 294 18.2 20.0 0.00 0.00 0.00 44 1021.4
20260905150507 69 308 12.2 20.0 0.00 0.00 0.00 46 1021.4
20260905150007 69 299 14.8 25.2 0.00 0.00 0.00 45 1021.4
20260905145507 69 306 13.9 24.3 0.00 0.00 0.00 45 1021.6
20260905145007 70 279 14.8 16.5 0.00 0.00 0.00 45 1021.4
20260905144507 69 289 14.8 17.4 0.00 0.00 0.00 45 1021.4
20260905144008 69 282 12.2 14.8 0.00 0.00 0.00 45 1021.3
20260905143507 68 289 9.6 12.2 0.00 0.00 0.00 46 1021.4
20260905143007 68 290 13.0 13.9 0.00 0.00 0.00 46 1021.2
20260905142507 69 290 11.3 14.8 0.00 0.00 0.00 46 1021.6
20260905142008 68 295 12.2 13.0 0.00 0.00 0.00 47 1021.4
20260905141508 68 298 19.1 21.7 0.00 0.00 0.00 46 1021.6
20260905141006 68 289 17.4 18.2 0.00 0.00 0.00 46 1021.4
20260905140508 68 300 15.6 18.2 0.00 0.00 0.00 45 1021.6
20260905140008 69 289 13.9 16.5 0.00 0.00 0.00 44 1021.1
20260905135508 69 287 12.2 13.9 0.00 0.00 0.00 45 1021.3
20260905135008 69 274 9.6 16.5 0.00 0.00 0.00 45 1021.2
20260905134508 68 274 15.6 19.1 0.00 0.00 0.00 46 1021.3
20260905134008 68 285 13.9 20.0 0.00 0.00 0.00 47 1021.2
20260905133507 68 289 12.2 14.8 0.00 0.00 0.00 49 1021.4
20260905133008 68 289 12.2 14.8 0.00 0.00 0.00 49 1021.6
20260905132507 68 277 17.4 18.2 0.00 0.00 0.00 50 1021.5
20260905132007 67 290 17.4 18.2 0.00 0.00 0.00 51 1021.5
20260905131508 67 290 17.4 18.2 0.00 0.00 0.00 51 1021.4
20260905131007 66 276 11.3 13.9 0.00 0.00 0.00 52 1021.5
20260905130506 67 285 11.3 14.8 0.00 0.00 0.00 51 1021.5
20260905130007 67 294 12.2 15.6 0.00 0.00 0.00 50 1021.4
20260905125507 67 299 17.4 18.2 0.00 0.00 0.00 50 1021.5
20260905125008 67 288 14.8 17.4 0.00 0.00 0.00 50 1021.7
20260905124507 67 301 13.0 15.6 0.00 0.00 0.00 51 1021.6
20260905124007 67 282 14.8 20.9 0.00 0.00 0.00 50 1021.5
20260905123508 67 295 10.4 15.6 0.00 0.00 0.00 50 1021.8
20260905123007 66 286 14.8 16.5 0.00 0.00 0.00 52 1021.5
20260905122508 66 283 17.4 18.2 0.00 0.00 0.00 51 1021.8
20260905122008 66 297 16.5 18.2 0.00 0.00 0.00 51 1021.8
20260905121508 67 295 14.8 19.1 0.00 0.00 0.00 50 1021.7
20260905121008 67 295 14.8 19.1 0.00 0.00 0.00 50 1021.9
20260905120508 67 281 12.2 23.5 0.00 0.00 0.00 51 1021.8
20260905120008 67 289 15.6 19.1 0.00 0.00 0.00 50 1022.0
20260905115508 66 285 21.7 22.6 0.00 0.00 0.00 51 1021.7
20260905115008 66 268 13.0 13.9 0.00 0.00 0.00 53 1021.8
20260905114507 67 278 16.5 21.7 0.00 0.00 0.00 52 1021.8
20260905114008 67 261 12.2 14.8 0.00 0.00 0.00 51 1021.8
20260905113508 66 289 20.0 22.6 0.00 0.00 0.00 54 1021.6
20260905113008 66 288 13.9 14.8 0.00 0.00 0.00 56 1022.2
20260905112507 66 294 17.4 18.2 0.00 0.00 0.00 55 1021.6
20260905112008 65 297 15.6 20.0 0.00 0.00 0.00 56 1021.8
20260905111508 65 296 13.9 20.0 0.00 0.00 0.00 57 1021.9
20260905111007 65 292 19.1 20.0 0.00 0.00 0.00 57 1021.9
20260905110509 64 275 13.9 19.1 0.00 0.00 0.00 60 1022.0
20260905110008 64 275 13.9 19.1 0.00 0.00 0.00 60 1022.0
20260905105508 65 276 20.9 21.7 0.00 0.00 0.00 58 1022.0
20260905105007 65 261 9.6 16.5 0.00 0.00 0.00 60 1022.0
20260905104508 65 261 9.6 16.5 0.00 0.00 0.00 60 1021.7
20260905104008 65 278 21.7 25.2 0.00 0.00 0.00 59 1022.0
20260905103508 64 250 16.5 28.7 0.00 0.00 0.00 61 1021.7
20260905103008 65 278 13.0 14.8 0.00 0.00 0.00 62 1021.8
20260905102506 64 287 12.2 19.1 0.00 0.00 0.00 63 1022.0
20260905102008 64 271 7.8 13.9 0.00 0.00 0.00 63 1021.9
20260905101508 64 275 5.2 9.6 0.00 0.00 0.00 66 1022.0
20260905101008 64 275 5.2 9.6 0.00 0.00 0.00 66 1021.8
20260905100508 63 278 12.2 13.9 0.00 0.00 0.00 67 1022.0
20260905100008 63 283 9.6 12.2 0.00 0.00 0.00 66 1021.8
20260905095508 62 259 8.7 16.5 0.00 0.00 0.00 66 1021.9
20260905095008 63 290 15.6 20.0 0.00 0.00 0.00 67 1021.7
20260905094508 63 291 12.2 16.5 0.00 0.00 0.00 67 1021.9
20260905094008 63 282 17.4 17.4 0.00 0.00 0.00 66 1021.9
20260905093508 62 254 7.8 9.6 0.00 0.00 0.00 70 1022.1
20260905093007 62 286 12.2 13.9 0.00 0.00 0.00 69 1021.9
20260905092508 62 266 10.4 13.9 0.00 0.00 0.00 69 1021.9
20260905092008 61 236 12.2 13.9 0.00 0.00 0.00 70 1021.9
20260905091508 62 264 14.8 14.8 0.00 0.00 0.00 70 1021.9
20260905091008 61 284 19.1 20.0 0.00 0.00 0.00 71 1022.0
20260905090508 61 276 13.9 15.6 0.00 0.00 0.00 73 1021.8
20260905090008 62 264 10.4 12.2 0.00 0.00 0.00 72 1021.9
20260905085508 62 280 7.8 8.7 0.00 0.00 0.00 74 1021.6
20260905085008 61 232 13.9 13.9 0.00 0.00 0.00 73 1021.6
20260905084508 62 265 10.4 11.3 0.00 0.00 0.00 73 1021.5
20260905084008 61 295 7.8 12.2 0.00 0.00 0.00 74 1021.8
20260905083508 60 280 4.3 10.4 0.00 0.00 0.00 76 1021.5
20260905083008 60 238 12.2 13.0 0.00 0.00 0.00 75 1021.6
20260905082508 60 271 14.8 14.8 0.00 0.00 0.00 76 1021.5
20260905082008 60 250 20.0 20.9 0.00 0.00 0.00 76 1021.5
20260905081509 59 262 10.4 14.8 0.00 0.00 0.00 77 1021.6
20260905081007 59 269 9.6 14.8 0.00 0.00 0.00 78 1021.6
20260905080507 59 259 3.5 7.0 0.00 0.00 0.00 78 1021.4
20260905080008 59 288 8.7 12.2 0.00 0.00 0.00 79 1021.5
20260905075508 59 279 4.3 5.2 0.00 0.00 0.00 80 1021.2
20260905075008 58 271 11.3 12.2 0.00 0.00 0.00 79 1021.2
20260905074507 58 252 8.7 13.0 0.00 0.00 0.00 81 1021.0
20260905074008 58 255 13.0 14.8 0.00 0.00 0.00 80 1021.0
20260905073508 57 252 10.4 11.3 0.00 0.00 0.00 81 1021.0
20260905073008 57 263 13.0 14.8 0.00 0.00 0.00 82 1020.8
20260905072508 57 259 7.8 14.8 0.00 0.00 0.00 83 1020.8
20260905072007 57 251 16.5 18.2 0.00 0.00 0.00 83 1020.8
20260905071508 57 287 9.6 13.0 0.00 0.00 0.00 85 1021.0
20260905071008 57 271 7.0 9.6 0.00 0.00 0.00 86 1021.0
20260905070509 57 248 13.0 18.2 0.00 0.00 0.00 85 1021.2
20260905070008 57 262 8.7 13.0 0.00 0.00 0.00 86 1021.2
20260905065508 56 258 12.2 14.8 0.00 0.00 0.00 87 1021.0
20260905065008 56 260 6.1 9.6 0.00 0.00 0.00 87 1020.9
20260905064507 56 242 7.8 10.4 0.00 0.00 0.00 90 1021.2
20260905064007 56 249 7.8 10.4 0.00 0.00 0.00 91 1020.9
20260905063507 56 246 7.0 8.7 0.00 0.00 0.00 91 1020.9
20260905063008 56 235 8.7 13.9 0.00 0.00 0.00 91 1020.9
20260905062508 56 234 17.4 19.1 0.00 0.00 0.00 91 1020.8
20260905062007 56 230 7.8 10.4 0.00 0.00 0.00 92 1020.8
20260905061508 56 244 13.0 13.0 0.00 0.00 0.00 92 1020.8
20260905061007 56 239 8.7 9.6 0.00 0.00 0.00 91 1020.4
20260905060508 56 269 7.0 12.2 0.00 0.00 0.00 91 1020.3
20260905060008 56 240 7.8 9.6 0.00 0.00 0.00 91 1020.4
20260905055508 56 239 7.0 7.8 0.00 0.00 0.00 91 1020.5
20260905055008 56 210 6.1 7.8 0.00 0.00 0.00 90 1020.3
20260905054509 56 229 4.3 8.7 0.00 0.00 0.00 91 1020.3
20260905054007 55 238 7.0 8.7 0.00 0.00 0.00 91 1020.4
20260905053508 55 221 9.6 9.6 0.00 0.00 0.00 91 1020.1
20260905053008 56 248 8.7 11.3 0.00 0.00 0.00 89 1020.1
20260905052508 55 233 6.1 6.1 0.00 0.00 0.00 89 1020.1
20260905052007 55 249 5.2 6.1 0.00 0.00 0.00 90 1020.0
20260905051508 55 259 7.0 7.0 0.00 0.00 0.00 89 1019.9
20260905051007 55 267 5.2 5.2 0.00 0.00 0.00 89 1020.0
20260905050508 55 268 3.5 3.5 0.00 0.00 0.00 89 1019.8
20260905050007 55 313 0.9 1.7 0.00 0.00 0.00 90 1019.7
20260905045508 55 351 1.7 3.5 0.00 0.00 0.00 91 1019.7
20260905045008 55 290 4.3 6.1 0.00 0.00 0.00 87 1019.4
20260905044507 55 228 2.6 4.3 0.00 0.00 0.00 89 1019.3
20260905044007 55 229 7.8 8.7 0.00 0.00 0.00 87 1018.7
20260905043507 56 204 10.4 11.3 0.00 0.00 0.00 86 1018.9
20260905043008 55 224 8.7 11.3 0.00 0.00 0.00 86 1018.9
20260905042507 55 220 13.0 13.9 0.00 0.00 0.00 88 1018.8
20260905042008 55 209 7.8 13.0 0.00 0.00 0.00 87 1018.4
20260905041508 55 232 5.2 9.6 0.00 0.00 0.00 89 1018.6
20260905041006 55 196 13.0 16.5 0.00 0.00 0.00 90 1017.9
20260905040507 56 219 9.6 12.2 0.00 0.00 0.00 87 1018.6
20260905040007 56 227 9.6 10.4 0.00 0.00 0.00 88 1018.8
20260905035507 56 205 7.0 16.5 0.00 0.00 0.00 86 1018.9
20260905035009 57 233 11.3 13.9 0.00 0.00 0.00 87 1019.0
20260905034508 30 0 0.0 0.0 0.00 0.00 0.00 100 1019.3
20260905034008 57 271 13.9 15.6 0.00 0.00 0.00 84 1019.4
20260905033507 57 271 13.9 15.6 0.00 0.00 0.00 84 1019.2
20260905033007 30 0 0.0 0.0 0.00 0.00 0.00 100 1019.4
20260905032507 30 0 0.0 0.0 0.00 0.00 0.00 100 1019.4
20260905032007 30 0 0.0 0.0 0.00 0.00 0.00 100 1019.3
20260905031508 59 289 20.0 21.7 0.00 0.00 0.00 74 1019.1
20260905031007 59 289 20.0 21.7 0.00 0.00 0.00 74 1018.8
20260905030508 30 0 0.0 0.0 0.00 0.00 0.00 100 1018.9
20260905030008 30 0 0.0 0.0 0.00 0.00 0.00 100 1019.2
20260905025508 59 285 17.4 19.1 0.00 0.00 0.00 76 1019.4
20260905025007 59 285 17.4 19.1 0.00 0.00 0.00 76 1019.6
20260905024508 30 0 0.0 0.0 0.00 0.00 0.00 100 1019.2
20260905024008 30 0 0.0 0.0 0.00 0.00 0.00 100 1018.9
20260905023507 30 0 0.0 0.0 0.00 0.00 0.00 100 1018.5
20260905023008 30 0 0.0 0.0 0.00 0.00 0.00 100 1018.3
20260905022508 30 0 0.0 0.0 0.00 0.00 0.00 100 1018.4
20260905022007 30 0 0.0 0.0 0.00 0.00 0.00 100 1018.2
20260905021507 30 0 0.0 0.0 0.00 0.00 0.00 100 1018.3
20260905021008 30 0 0.0 0.0 0.00 0.00 0.00 100 1018.4
20260905020508 59 314 7.8 9.6 0.00 0.00 0.00 71 1018.4
20260905020007 59 314 7.8 9.6 0.00 0.00 0.00 71 1018.3
20260905015508 59 298 8.7 14.8 0.00 0.00 0.00 70 1018.3
20260905015007 59 289 15.6 17.4 0.00 0.00 0.00 70 1018.7
20260905014508 60 289 13.0 14.8 0.00 0.00 0.00 70 1018.5
20260905014008 62 301 18.2 21.7 0.00 0.00 0.00 63 1018.1
20260905013507 62 299 12.2 20.0 0.00 0.00 0.00 61 1018.3
20260905013007 62 291 14.8 19.1 0.00 0.00 0.00 61 1017.7
20260905012508 62 301 12.2 20.9 0.00 0.00 0.00 61 1017.8
20260905012007 62 307 12.2 17.4 0.00 0.00 0.00 61 1017.7
20260905011507 63 316 9.6 13.0 0.00 0.00 0.00 63 1017.7
20260905011008 63 296 16.5 19.1 0.00 0.00 0.00 64 1017.8
20260905010507 63 298 22.6 24.3 0.00 0.00 0.00 64 1017.7
20260905010008 63 308 12.2 20.0 0.00 0.00 0.00 66 1018.0
20260905005508 63 298 14.8 19.1 0.00 0.00 0.00 66 1017.7
20260905005007 62 305 12.2 13.9 0.00 0.00 0.00 67 1017.6
20260905004508 62 305 12.2 13.9 0.00 0.00 0.00 67 1017.7
20260905004007 62 318 4.3 7.0 0.00 0.00 0.00 67 1017.8
20260905003508 62 305 10.4 13.0 0.00 0.00 0.00 67 1017.8
20260905003007 62 308 7.0 12.2 0.00 0.00 0.00 67 1017.9
20260905002507 63 313 7.0 10.4 0.00 0.00 0.00 65 1017.4
20260905002007 62 301 7.0 8.7 0.00 0.00 0.00 67 1017.6
20260905001508 62 299 9.6 12.2 0.00 0.00 0.00 67 1017.5
20260905001006 63 298 10.4 13.9 0.00 0.00 0.00 66 1017.8
20260905000507 63 317 9.6 12.2 0.00 0.00 0.00 64 1017.8
20260905000009 63 327 10.4 13.9 0.00 0.00 0.00 64 1017.6
20260904235507 63 304 20.9 28.7 0.00 0.00 0.00 67 1017.5